This demonstration page uses our WeatherBlox Daily Observations layout. Learn more.

Left ArrowRight Arrow

44.8408, -93.29828

Hourly Observations for July 14, 2019

Temp ( °F °C ) Dew Point ( °F °C ) Humidity (%) Winds ( mph kmh ) Pressure ( in mb ) Visibility ( mi km ) Precip ( " mm )
12:53 am 00:53 Mostly Cloudy 75 23.9 65 18.3 71 71 ESE 10 17 30.03 1017 10 16 0.00 0.00
1:53 am 01:53 Clear 73 22.8 64 17.8 74 74 SE 6 9 30.04 1017 10 16 0.00 0.00
2:53 am 02:53 Mostly Cloudy 73 22.8 64 17.8 74 74 ESE 7 11 30.04 1017 10 16 0.00 0.00
3:53 am 03:53 Cloudy 73 22.8 64 17.8 74 74 SE 7 11 30.04 1017 10 16 0.00 0.00
4:53 am 04:53 Cloudy 74 23.3 64 17.8 71 71 SE 7 11 30.05 1018 10 16 0.00 0.00
5:53 am 05:53 Partly Cloudy 72 22.2 64 17.8 76 76 SE 5 7 30.06 1018 10 16 0.00 0.00
6:53 am 06:53 Mostly Cloudy 73 22.8 64 17.8 74 74 SSE 5 7 30.05 1018 10 16 0.00 0.00
7:53 am 07:53 Mostly Cloudy 76 24.4 66 18.9 72 72 S 9 15 30.05 1018 10 16 0.00 0.00
8:53 am 08:53 Mostly Cloudy 79 26.1 69 20.6 72 72 S 8 13 30.04 1017 10 16 0.00 0.00
9:53 am 09:53 Partly Cloudy 82 27.8 70 21.1 67 67 S 9 15 30.02 1017 10 16 0.00 0.00
10:53 am 10:53 Mostly Cloudy 85 29.4 71 21.7 63 63 S 8 13 30.03 1017 10 16 0.00 0.00
11:53 am 11:53 Mostly Cloudy 86 30 71 21.7 61 61 S 7 11 30.02 1017 10 16 0.00 0.00
12:53 pm 12:53 Mostly Cloudy 88 31.1 71 21.7 57 57 VRB 7 11 30.01 1016 10 16 0.00 0.00
1:53 pm 13:53 Mostly Cloudy 89 31.7 70 21.1 53 53 S 12 19 29.98 1015 10 16 0.00 0.00
2:53 pm 14:53 Mostly Cloudy 91 32.8 70 21.1 50 50 S 9 15 29.98 1015 10 16 0.00 0.00
3:53 pm 15:53 Mostly Cloudy 90 32.2 70 21.1 52 52 S 12 19 29.96 1015 10 16 0.00 0.00
4:53 pm 16:53 Mostly Cloudy 90 32.2 69 20.6 50 50 SSW 10 17 29.94 1014 10 16 0.00 0.00
5:53 pm 17:53 Mostly Cloudy 91 32.8 69 20.6 49 49 SSW 12 19 29.93 1014 10 16 0.00 0.00
6:53 pm 18:53 Mostly Cloudy 89 31.7 70 21.1 53 53 SW 10 17 29.92 1013 10 16 0.00 0.00
7:53 pm 19:53 Cloudy 88 31.1 70 21.1 55 55 SSW 7 11 29.91 1013 10 16 0.00 0.00
8:53 pm 20:53 Cloudy with Light Rain 87 30.6 71 21.7 59 59 SSW 8 13 29.93 1013 10 16 0.00 0.03
9:53 pm 21:53 Cloudy 85 29.4 71 21.7 63 63 S 8 13 29.91 1013 10 16 0.00 0.03
10:53 pm 22:53 Cloudy 77 25 68 20 74 74 NE 12 19 29.97 1015 10 16 0.00 0.00
11:53 pm 23:53 Mostly Cloudy 72 22.2 68 20 87 87 ENE 10 17 29.96 1014 10 16 0.01 0.25

Powered by AerisWeather